Flag for Switzerland Weather past 2 weeks in Kloten, Zurich, Switzerland

Now
59 °F

Sprinkles. Broken clouds.


Feels Like: 60 °F
Forecast: 47 / 57 °F
Wind: 3 mph from Southeast

Location: Zurich-Kloten

Current Time: May 25, 2015 at 6:10:07 PM

Latest Report: May 25, 2015 at 5:20 PM


Visibility: N/A

Pressure: 29.95 "Hg

Humidity: 82%

Dew point: 54 °F

Location of KlotenLocation

Historic Weather in Kloten — Graph

°F

Kloten temperature yesterday

Maximum temperature yesterday: 66 °F (at 3:20 PM)
Minimum temperature yesterday: 52 °F (at 2:50 AM)
Average temperature yesterday: 59 °F

Past Weeks' High & Low Weather Summary

 TemperatureHumidityPressure
High82 °F (May 12, 3:50 PM)100% (May 11, 3:20 AM)30.33 "Hg (May 11, 3:20 AM)
Low43 °F (May 21, 2:50 AM)26% (May 12, 6:20 PM)29.77 "Hg (May 18, 5:50 PM)
Average58 °F73%30.09 "Hg
* Reported May 10 4:20 PM — May 25 4:50 PM, Kloten, Weather by CustomWeather, © 2015

Note: Actual official high and low records may vary slightly from our data, if they occured in-between our weather recording intervals... More about our weather records

Advertising

Kloten weather history for previous 24 hours

 ConditionsComfort  
Time TempWeatherWind HumidityBarometerVisibility
4:50 PM
Mon, May 25
57 °FSprinkles. Partly sunny.5 mph88%29.95 "HgN/A
4:20 PM57 °FSprinkles. Partly sunny.5 mph88%29.95 "HgN/A
3:50 PM57 °FSprinkles. Broken clouds.5 mph88%29.98 "HgN/A
3:20 PM57 °FRain showers. Broken clouds.2 mph82%29.98 "HgN/A
2:50 PM57 °FSprinkles. Broken clouds.13 mph77%29.95 "HgN/A
2:20 PM66 °FBroken clouds.3 mph52%29.95 "HgN/A
1:50 PM68 °FPartly sunny.3 mph49%29.95 "HgN/A
1:20 PM66 °FPartly sunny.2 mph56%29.98 "HgN/A
12:50 PM66 °FPartly sunny.3 mph49%29.98 "HgN/A
12:20 PM64 °FPartly sunny.5 mph56%29.98 "HgN/A
11:50 AM64 °FPartly sunny.2 mph60%30.01 "HgN/A
11:20 AM64 °FScattered clouds.5 mph60%30.01 "HgN/A
10:50 AM63 °FPartly sunny.3 mph68%30.01 "HgN/A
10:20 AM61 °FScattered clouds.5 mph72%30.01 "HgN/A
9:50 AM59 °FPassing clouds.3 mph72%30.01 "HgN/A
9:20 AM59 °FPartly sunny.1 mph72%30.04 "HgN/A
8:50 AM55 °FPartly sunny.No wind82%30.04 "HgN/A
8:20 AM55 °FPartly sunny.No wind88%30.04 "HgN/A
7:50 AM55 °FPartly sunny.No wind82%30.04 "HgN/A
7:20 AM54 °FPartly sunny.No wind94%30.04 "HgN/A
6:50 AM54 °FPartly sunny.No wind88%30.04 "HgN/A
6:20 AM54 °FPassing clouds.1 mph88%30.04 "HgN/A
5:50 AM54 °FPassing clouds.No wind88%30.04 "HgN/A
5:20 AM54 °FPassing clouds.No wind82%30.04 "HgN/A
4:50 AM54 °FPassing clouds.1 mph88%30.04 "HgN/A
4:20 AM54 °FClear.1 mph88%30.04 "Hg10 mi
3:50 AM54 °FClear.1 mph88%30.04 "Hg10 mi
3:20 AM54 °FClear.5 mph88%30.04 "Hg10 mi
2:50 AM54 °FClear.5 mph88%30.04 "Hg10 mi
1:50 AM57 °FClear.1 mph77%30.04 "Hg10 mi
1:20 AM57 °FClear.2 mph77%30.04 "Hg10 mi
12:50 AM57 °FClear.2 mph77%30.04 "Hg10 mi
12:20 AM57 °FClear.3 mph77%30.07 "Hg10 mi
11:20 PM
Sun, May 24
59 °FPassing clouds.5 mph63%30.07 "HgN/A
10:50 PM61 °FClear.1 mph59%30.07 "Hg10 mi
10:20 PM57 °FClear.3 mph77%30.07 "Hg10 mi
9:50 PM59 °FSunny.6 mph72%30.04 "Hg10 mi
9:20 PM59 °FPassing clouds.3 mph68%30.04 "HgN/A
8:50 PM61 °FSunny.5 mph59%30.04 "Hg10 mi
8:20 PM63 °FSunny.2 mph56%30.04 "Hg10 mi
7:50 PM63 °FPartly sunny.5 mph56%30.04 "HgN/A
7:20 PM63 °FPartly sunny.9 mph56%30.04 "HgN/A
6:50 PM63 °FPartly sunny.8 mph56%30.04 "HgN/A
6:20 PM64 °FScattered clouds.8 mph49%30.04 "HgN/A
Weather by CustomWeather, © 2015

See weather overviewHow to use our weather pages